Location: Lavington
(51.2833°N, 1.9833°W)
Time: 02:30:04
(UTC+00:00)

Cosmos 1943 Rocket - Pass Details

Date: 01 June 2020
Orbit: 810 x 845 km, 71.0° (Epoch: 11 July)

Event Time Altitude Azimuth Distance (km) Brightness Sun altitude
Exits shadow 21:31:48 - 180° (S) 2,832 4.4 -9.1°
Reaches altitude 10° 21:32:59 10° 176° (S) 2,411 4.1 -9.2°
Maximum altitude 21:38:05 40° 108° (ESE) 1,213 2.7 -9.7°
Drops below altitude 10° 21:43:15 10° 41° (NE) 2,448 4.8 -10.1°
Sets 21:45:50 0° 35° (NE) 3,392 5.7 -10.3°
